Location: Krakow
(50.0830°N, 19.9170°E)
Time: 10:36:33
(UTC+02:00)

Vanguard 3 - Pass Details

Date: 12 February 2023
Orbit: 508 x 3249 km, 33.4° (Epoch: 31 March)

Event Time Altitude Azimuth Distance (km) Brightness Sun altitude
Rises 22:09:26 0° 258° (WSW) 4,945 11.4 -47.7°
Reaches altitude 10° 22:14:47 10° 235° (SW) 4,522 10.9 -48.2°
Enters shadow 22:16:11 12° 229° (SW) 4,509 10.8 -48.3°
Maximum altitude 22:20:26 14° 209° (SSW) 4,706 - -48.7°
Drops below altitude 10° 22:27:11 10° 184° (S) 5,550 - -49.4°
Sets 22:35:35 0° 164° (SSE) 7,000 - -50.1°
